TOURFACTS.DK  
Stats and Facts from Tour de France.

Tour de France 2018 starts in 258 days
  Riders   Stages   Teams   Summits   Yearly  


 
Search by year

 2017 - St. 21:  14824 starters.
  5131 different riders.
  634 teams.
  2232 stages.
  454 restdays.
  439589.60 km.
  5653 abandonnees.


Top 3
Christopher Froome86:20:55
Rigoberto Uran86:21:49
Romain Bardet86:23:15
Warren Barguil169 pt.
Primoz Roglic80 pt.
Thomas De Gendt64 pt.
Michael Matthews359 pt.
André Greipel234 pt.
Edvald Boasson Hagen220 pt.
Simon Yates86:27:09
Louis Meintjes86:29:15
Emanuel Buchmann86:54:16
Facts from Tour de France 2017
  |   Stages.  |   Stage winners.  |   Days in yellow  |   Average speed.  |   Route.  |   Teams.  |   All riders.  |   Rookies.  |   Withdrawls.  |  

  |   GC.  |   Polka  |   Green  |   White  |   Summits. (In tour)  |   Summits. (Points)  |   Miscellaneous.  |  

Stage 12 on 13 - 07 - 2017
         Owning:    Fabio Aru      Warren Barguil      Marcel Kittel      Simon Yates  

Pick a stage:  1 2 3 4 5 6 7 8 9 10 11 12 13 14 15 16 17 18 19 20 21
  PauPeyragudes | Dist: 214.50 km.
Cat: 4Côte de CapvernBELThomas De Gendt
1 point
 
Cat: 2Col des AresBELThomas De Gendt
5 points
 
Cat: 1Col de Menté/MourtisAUSMichael Matthews
10 points
 
Cat: HPort de BalèsENGStephen Cummings
20 points
 
Cat: 1Col de PeyresourdeESPMikel Nieve
10 points
 
Cat: 2PeyragudesFRARomain Bardet
5 points
 

Average speed for all riders in stage:  34,665 km./hr.
    Place:Name:Team:Time:Km/h:
FRARomain BardetFRAAg2r La Mondiale05:49:38  +  00:00:00=36,810 
COLRigoberto UranUSACannondale-Drapac Pro Cycling ..05:49:40  +  00:00:02=36,806 
ITAFabio AruKAZAstana Pro Team05:49:40  +  00:00:02=36,806 
4 ESPMikel Landa MeanaGBRSky Procycling05:49:43  +  00:00:05=36,801 
5 RSALouis MeintjesUAEUAE Team Emirates05:49:45  +  00:00:07=36,798 
6 ENGDaniel MartinBELQuick-Step Floors05:49:51  +  00:00:13=36,787 
7 KENChristopher FroomeGBRSky Procycling05:50:00  +  00:00:22=36,771 
8 NZLGeorge BennettNLDTeam Lotto NL - Jumbo05:50:05  +  00:00:27=36,763 
9 ENGSimon YatesAUSOrica - Scott05:50:05  +  00:00:27=36,763 
10 ESPMikel NieveGBRSky Procycling05:51:06  +  00:01:28=36,656 
11 COLNairo QuintanaESPMovistar Team05:51:42  +  00:02:04=36,594 
12 FRAWarren BarguilDEUTeam Sunweb05:51:46  +  00:02:08=36,587 
13 ITADamiano CarusoUSABMC Racing Team05:51:49  +  00:02:11=36,582 
14 ESPAlberto ContadorUSATrek – Segafredo05:51:53  +  00:02:15=36,575 
15 FRAPierre-Roger LatourFRAAg2r La Mondiale05:52:37  +  00:02:59=36,499 
16 FRAGuillaume MartinBELWanty – Groupe Gobert05:53:58  +  00:04:20=36,359 
17 BELTiesj BenootBELLotto Soudal05:54:11  +  00:04:33=36,337 
18 BELSerge PauwelsZAFDimension Data05:54:14  +  00:04:36=36,332 
19 FRAAlexis VuillermozFRAAg2r La Mondiale05:54:14  +  00:04:36=36,332 
20 FRABrice FeilluFRAFortuneo - Vital Concept05:54:34  +  00:04:56=36,298 
21 COLCarlos Alberto BetancurESPMovistar Team05:55:00  +  00:05:22=36,254 
22 USANathan BrownUSACannondale-Drapac Pro Cycling ..05:55:19  +  00:05:41=36,221 
23 GEREmanuel BuchmannDEUBora–Hansgrohe05:55:22  +  00:05:44=36,216 
24 FRACyril GautierFRAAg2r La Mondiale05:55:35  +  00:05:57=36,194 
25 COLJarlinson Pantano GomezUSATrek – Segafredo05:56:45  +  00:07:07=36,076 
26 COLSergio Luis HenaoGBRSky Procycling05:56:45  +  00:07:07=36,076 
27 FRAAmaël MoinardUSABMC Racing Team05:57:04  +  00:07:26=36,044 
28 ESPLuis Angel MateFRACofidis – Solutions Crédits05:58:52  +  00:09:14=35,863 
29 SLOJanez BrajkovicBHRBahrain-Merida06:00:07  +  00:10:29=35,738 
30 BELThomas De GendtBELLotto Soudal06:00:07  +  00:10:29=35,738 
31 ESPJonathan CastroviejoESPMovistar Team06:00:27  +  00:10:49=35,705 
32 FRAMaxime BouetFRAFortuneo - Vital Concept06:01:05  +  00:11:27=35,643 
33 CZERoman KreuzigerAUSOrica - Scott06:01:08  +  00:11:30=35,638 
34 ENGStephen CummingsZAFDimension Data06:01:10  +  00:11:32=35,635 
35 NEDBauke MollemaUSATrek – Segafredo06:01:28  +  00:11:50=35,605 
36 FRARomain HardyFRAFortuneo - Vital Concept06:01:56  +  00:12:18=35,559 
37 COLDarwin AtapumaUAEUAE Team Emirates06:02:02  +  00:12:24=35,549 
38 FRALilian CalmejaneFRADirect Energie06:02:02  +  00:12:24=35,549 
39 FRARudy MolardFRAFDJ06:02:02  +  00:12:24=35,549 
40 BELJan BakelantsFRAAg2r La Mondiale06:02:02  +  00:12:24=35,549 
41 FRAPierre RollandUSACannondale-Drapac Pro Cycling ..06:02:13  +  00:12:35=35,531 
42 SLOPrimoz RoglicNLDTeam Lotto NL - Jumbo06:02:39  +  00:13:01=35,489 
43 FRASylvain ChavanelFRADirect Energie06:02:43  +  00:13:05=35,482 
44 ESPHaimar ZubeldiaUSATrek – Segafredo06:03:06  +  00:13:28=35,445 
45 BELThomas DegandBELWanty – Groupe Gobert06:03:06  +  00:13:28=35,445 
46 FRAAxel DomontFRAAg2r La Mondiale06:03:09  +  00:13:31=35,440 
47 HRVRobert KiserlovskiCHETeam Katusha - Alpecin06:03:09  +  00:13:31=35,440 
48 SUIMathias FrankFRAAg2r La Mondiale06:03:21  +  00:13:43=35,420 
49 NEDKoen De KortUSATrek – Segafredo06:04:37  +  00:14:59=35,297 
50 SUIStefan KüngUSABMC Racing Team06:04:55  +  00:15:17=35,268 
51 KAZBakhtiyar KozhatayevKAZAstana Pro Team06:04:57  +  00:15:19=35,265 
52 FRAPierre-Luc PérichonFRAFortuneo - Vital Concept06:05:39  +  00:16:01=35,198 
53 GERGianluca BrambillaBELQuick-Step Floors06:05:59  +  00:16:21=35,166 
54 NEDMarco MinnaardBELWanty – Groupe Gobert06:05:59  +  00:16:21=35,166 
55 SUIDanilo WyssUSABMC Racing Team06:05:59  +  00:16:21=35,166 
56 SUIMichael SchärUSABMC Racing Team06:05:59  +  00:16:21=35,166 
57 FRAJulien SimonFRACofidis – Solutions Crédits06:06:26  +  00:16:48=35,122 
58 LUXBen GastauerFRAAg2r La Mondiale06:06:45  +  00:17:07=35,092 
59 FRARomain SicardFRADirect Energie06:06:53  +  00:17:15=35,079 
60 POLMichal KwiatkowskiGBRSky Procycling06:07:00  +  00:17:22=35,068 
61 USAAndrew TalanskyUSACannondale-Drapac Pro Cycling ..06:08:21  +  00:18:43=34,940 
62 FRATony GallopinBELLotto Soudal06:09:22  +  00:19:44=34,843 
63 FRANicolas EdetFRACofidis – Solutions Crédits06:09:22  +  00:19:44=34,843 
64 FRALaurent PichonFRAFortuneo - Vital Concept06:09:22  +  00:19:44=34,843 
65 ETHTsgabu Gebremaryan GrmayBHRBahrain-Merida06:09:25  +  00:19:47=34,839 
66 BELOliver NaesenFRAAg2r La Mondiale06:09:25  +  00:19:47=34,839 
67 BELGreg Van AvermaetUSABMC Racing Team06:09:25  +  00:19:47=34,839 
68 AUSAdam HansenBELLotto Soudal06:09:25  +  00:19:47=34,839 
69 ESPImanol ErvitiESPMovistar Team06:09:25  +  00:19:47=34,839 
70 FRANicolas RocheUSABMC Racing Team06:09:34  +  00:19:56=34,825 
71 FRAThomas VoecklerFRADirect Energie06:09:46  +  00:20:08=34,806 
72 CZEOndrej CinkBHRBahrain-Merida06:09:46  +  00:20:08=34,806 
73 ITAAlberto BettiolUSACannondale-Drapac Pro Cycling ..06:09:58  +  00:20:20=34,787 
74 AUSDamien HowsonAUSOrica - Scott06:11:07  +  00:21:29=34,679 
75 DENLars BakBELLotto Soudal06:13:43  +  00:24:05=34,438 
76 ESPMarkel IrizarUSATrek – Segafredo06:13:43  +  00:24:05=34,438 
77 PORTiago PintoCHETeam Katusha - Alpecin06:13:43  +  00:24:05=34,438 
78 RSADaryl ImpeyAUSOrica - Scott06:13:43  +  00:24:05=34,438 
79 BELPieter VanspeybrouckBELWanty – Groupe Gobert06:13:43  +  00:24:05=34,438 
80 FRAPerrig QuemeneurFRADirect Energie06:13:43  +  00:24:05=34,438 
81 FRAThibaut PinotFRAFDJ06:13:43  +  00:24:05=34,438 
82 SLOGrega BoleBHRBahrain-Merida06:13:43  +  00:24:05=34,438 
83 BELJulien VermoteBELQuick-Step Floors06:13:43  +  00:24:05=34,438 
84 FRAOlivier Le GacFRAFDJ06:13:43  +  00:24:05=34,438 
85 NEDMaurits LammertinkCHETeam Katusha - Alpecin06:13:43  +  00:24:05=34,438 
86 GERTony MartinCHETeam Katusha - Alpecin06:13:43  +  00:24:05=34,438 
87 NEDLaurens ten DamDEUTeam Sunweb06:13:43  +  00:24:05=34,438 
88 COLJohan Esteban ChavesAUSOrica - Scott06:13:43  +  00:24:05=34,438 
89 HRVKristijan DurasekUAEUAE Team Emirates06:13:43  +  00:24:05=34,438 
90 KAZAlexey LutsenkoKAZAstana Pro Team06:13:43  +  00:24:05=34,438 
91 BELJens KeukeleireAUSOrica - Scott06:13:43  +  00:24:05=34,438 
92 BELPhilippe GilbertBELQuick-Step Floors06:13:43  +  00:24:05=34,438 
93 ESPJavier Moreno BazánBHRBahrain-Merida06:13:43  +  00:24:05=34,438 
94 FRAYoann OffredoBELWanty – Groupe Gobert06:13:43  +  00:24:05=34,438 
95 GERSimon GeschkeDEUTeam Sunweb06:13:43  +  00:24:05=34,438 
96 GERPaul MartensNLDTeam Lotto NL - Jumbo06:13:43  +  00:24:05=34,438 
97 ESPDaniel NavarroFRACofidis – Solutions Crédits06:13:43  +  00:24:05=34,438 
98 FRAElie GesbertFRAFortuneo - Vital Concept06:13:43  +  00:24:05=34,438 
99 SUIReto HollensteinCHETeam Katusha - Alpecin06:13:43  +  00:24:05=34,438 
100 NZLJack BauerBELQuick-Step Floors06:13:43  +  00:24:05=34,438 
101 CRCAndrey AmadorESPMovistar Team06:13:43  +  00:24:05=34,438 
102 GERNils PolittCHETeam Katusha - Alpecin06:13:43  +  00:24:05=34,438 
103 FRAAngelo TulikFRADirect Energie06:13:43  +  00:24:05=34,438 
104 POLPawel PoljanskiDEUBora–Hansgrohe06:13:57  +  00:24:19=34,416 
105 ITAAlessandro De MarchiUSABMC Racing Team06:13:57  +  00:24:19=34,416 
106 NEDDylan Van BaarleUSACannondale-Drapac Pro Cycling ..06:13:57  +  00:24:19=34,416 
107 NEDTimo RoosenNLDTeam Lotto NL - Jumbo06:14:02  +  00:24:24=34,409 
108 ENGBen SwiftUAEUAE Team Emirates06:14:04  +  00:24:26=34,406 
109 FRAFlorian VachonFRAFortuneo - Vital Concept06:14:04  +  00:24:26=34,406 
110 ESPJesus HerradaESPMovistar Team06:14:12  +  00:24:34=34,393 
111 AUSSimon ClarkeUSACannondale-Drapac Pro Cycling ..06:14:20  +  00:24:42=34,381 
112 NZLPaddy BevinUSACannondale-Drapac Pro Cycling ..06:14:48  +  00:25:10=34,338 
113 BLRVasil KiryienkaGBRSky Procycling06:14:58  +  00:25:20=34,323 
114 AUSMichael MatthewsDEUTeam Sunweb06:14:58  +  00:25:20=34,323 
115 GERNikias ArndtDEUTeam Sunweb06:14:58  +  00:25:20=34,323 
116 FRAYohann GèneFRADirect Energie06:15:57  +  00:26:19=34,233 
117 FRAThomas BoudatFRADirect Energie06:16:00  +  00:26:22=34,229 
118 ARGEduardo SepulvedaFRAFortuneo - Vital Concept06:16:02  +  00:26:24=34,226 
119 ITAMatteo BonoUAEUAE Team Emirates06:16:11  +  00:26:33=34,212 
120 NEDRoy CurversDEUTeam Sunweb06:16:11  +  00:26:33=34,212 
121 ITAFabio FellineUSATrek – Segafredo06:16:14  +  00:26:36=34,207 
122 ENGScott ThwaitesZAFDimension Data06:16:14  +  00:26:36=34,207 
123 NOREdvald Boasson HagenZAFDimension Data06:16:14  +  00:26:36=34,207 
124 NORVegard Stake LaengenUAEUAE Team Emirates06:16:14  +  00:26:36=34,207 
125 ITAMarco MarcatoUAEUAE Team Emirates06:16:14  +  00:26:36=34,207 
126 ITADiego UlissiUAEUAE Team Emirates06:16:19  +  00:26:41=34,200 
127 FRAAdrien PetitFRADirect Energie06:16:51  +  00:27:13=34,152 
128 JPNYukiya ArashiroBHRBahrain-Merida06:16:58  +  00:27:20=34,141 
129 DENMichael ValgrenKAZAstana Pro Team06:17:20  +  00:27:42=34,108 
130 KAZAndrey ZeitsKAZAstana Pro Team06:17:20  +  00:27:42=34,108 
131 SUIJakob FuglsangKAZAstana Pro Team06:17:20  +  00:27:42=34,108 
132 UKRAndriy GrivkoKAZAstana Pro Team06:17:20  +  00:27:42=34,108 
133 KAZDmitriy GruzdevKAZAstana Pro Team06:17:20  +  00:27:42=34,108 
134 RSAReinardt Janse Van RensburgZAFDimension Data06:17:53  +  00:28:15=34,058 
135 RSAJaco VenterZAFDimension Data06:18:08  +  00:28:30=34,036 
136 GERJasha SütterlinESPMovistar Team06:21:39  +  00:32:01=33,722 
137 GERChristian KneesGBRSky Procycling06:23:56  +  00:34:18=33,521 
138 BELTim WellensBELLotto Soudal06:23:56  +  00:34:18=33,521 
139 ITADaniele BennatiESPMovistar Team06:23:56  +  00:34:18=33,521 
140 BELFrederik BackaertBELWanty – Groupe Gobert06:23:56  +  00:34:18=33,521 
141 NEDMike TeunissenDEUTeam Sunweb06:23:56  +  00:34:18=33,521 
142 AUTMichael GoglUSATrek – Segafredo06:23:56  +  00:34:18=33,521 
143 GERMarcus BurghardtDEUBora–Hansgrohe06:23:56  +  00:34:18=33,521 
144 ITAFabio SabatiniBELQuick-Step Floors06:23:56  +  00:34:18=33,521 
145 ITAAndrea PasqualonBELWanty – Groupe Gobert06:23:56  +  00:34:18=33,521 
146 AUSJay McCarthyDEUBora–Hansgrohe06:23:56  +  00:34:18=33,521 
147 NORAlexander KristoffCHETeam Katusha - Alpecin06:23:56  +  00:34:18=33,521 
148 BELGuillaume Van KeirsbulckBELWanty – Groupe Gobert06:23:56  +  00:34:18=33,521 
149 NZLDion SmithBELWanty – Groupe Gobert06:23:56  +  00:34:18=33,521 
150 DDRRüdiger SeligDEUBora–Hansgrohe06:23:56  +  00:34:18=33,521 
151 NEDRamon SinkeldamDEUTeam Sunweb06:23:56  +  00:34:18=33,521 
152 GERAndré GreipelBELLotto Soudal06:23:56  +  00:34:18=33,521 
153 USATaylor PhinneyUSACannondale-Drapac Pro Cycling ..06:23:56  +  00:34:18=33,521 
154 GERRick ZabelCHETeam Katusha - Alpecin06:23:56  +  00:34:18=33,521 
155 NEDAlbert TimmerDEUTeam Sunweb06:23:56  +  00:34:18=33,521 
156 SUIMichael AlbasiniAUSOrica - Scott06:23:56  +  00:34:18=33,521 
157 AUSMathew HaymanAUSOrica - Scott06:23:56  +  00:34:18=33,521 
158 FRAFlorian SénéchalFRACofidis – Solutions Crédits06:23:56  +  00:34:18=33,521 
159 BELDimitri ClaeysFRACofidis – Solutions Crédits06:24:05  +  00:34:27=33,508 
160 BELJürgen RoelandtsBELLotto Soudal06:24:09  +  00:34:31=33,503 
161 FRANacer BouhanniFRACofidis – Solutions Crédits06:24:10  +  00:34:32=33,501 
162 NEDTom LeezerNLDTeam Lotto NL - Jumbo06:24:10  +  00:34:32=33,501 
163 GERRobert WagnerNLDTeam Lotto NL - Jumbo06:24:17  +  00:34:39=33,491 
164 ITASonny ColbrelliBHRBahrain-Merida06:24:17  +  00:34:39=33,491 
165 SLOBorut BozicBHRBahrain-Merida06:24:17  +  00:34:39=33,491 
166 WALLuke RoweGBRSky Procycling06:24:24  +  00:34:46=33,481 
167 FRAChristophe LaporteFRACofidis – Solutions Crédits06:24:24  +  00:34:46=33,481 
168 FRACyril LemoineFRACofidis – Solutions Crédits06:24:24  +  00:34:46=33,481 
169 GERJohn DegenkolbUSATrek – Segafredo06:24:24  +  00:34:46=33,481 
170 GERMarcel KittelBELQuick-Step Floors06:24:24  +  00:34:46=33,481 
171 POLMaciej BodnarDEUBora–Hansgrohe06:24:24  +  00:34:46=33,481 
172 CZEZdenek StybarBELQuick-Step Floors06:24:24  +  00:34:46=33,481 
173 NEDDylan GroenewegenNLDTeam Lotto NL - Jumbo06:24:24  +  00:34:46=33,481 
174 AUTMarco HallerCHETeam Katusha - Alpecin06:24:24  +  00:34:46=33,481 
175 GERMarcel SiebergBELLotto Soudal06:24:31  +  00:34:53=33,471 
176 ITADavide CimolaiFRAFDJ06:25:07  +  00:35:29=33,418 
177 FRAArthur VichotFRAFDJ06:25:37  +  00:35:59=33,375 
178 AUTBernhard EiselZAFDimension Data06:26:33  +  00:36:55=33,295 
179 ENGDaniel McLayFRAFortuneo - Vital Concept06:27:35  +  00:37:57=33,206 


Todays birthdays.

1890  Maurice Lartigue
1892  Mosé Arosio
1896  Henri Drapel
1919  Bernardo Capo
1920  Kléber Piot
1926  Victorio Garcia
1946  Lucien Van Impe
1946  Pierfranco Vianelli
1948  Jacques Boulas
1948  Yves Hézard
1962  Jan Goessens
1962  Jens Veggerby
1980  Patrik Sinkewitz
1986  Wesley Sulzberger